timestamp,surface_pressure_avg,surface_temp_avg,battery_voltage,lat,long
2020-03-07 00:09:01+00:00,289.1915,0.2,12.81,47.84626,-54.09684
2020-03-07 00:19:01+00:00,274.4014,0.21,12.65,47.84626,-54.09684
2020-03-07 00:29:01+00:00,257.0198,0.2,12.65,47.84626,-54.09684
2020-03-07 00:39:01+00:00,246.5681,0.21,12.65,47.84626,-54.09684
2020-03-07 00:49:01+00:00,244.4847,0.21,12.65,47.84626,-54.09684
2020-03-07 00:59:01+00:00,241.5214,0.2,12.65,47.84626,-54.09684
2020-03-07 01:09:01+00:00,234.8331,0.2,12.65,47.84626,-54.09684
2020-03-07 01:19:01+00:00,230.0081,0.2,12.65,47.84626,-54.09684
2020-03-07 01:29:01+00:00,234.2398,0.2,12.65,47.84626,-54.09684
2020-03-07 01:39:01+00:00,235.6881,0.2,12.65,47.84626,-54.09684
2020-03-07 01:49:01+00:00,228.9798,0.15,12.65,47.84626,-54.09684
2020-03-07 01:59:01+00:00,224.1081,0.1,12.65,47.84626,-54.09684
2020-03-07 02:09:01+00:00,222.8081,0.1,12.65,47.84626,-54.09684
2020-03-07 02:19:01+00:00,221.6131,0.0,12.65,47.84626,-54.09684
2020-03-07 02:29:01+00:00,219.4114,0.0,12.65,47.84626,-54.09684
2020-03-07 02:39:01+00:00,216.6731,0.0,12.65,47.84626,-54.09684
2020-03-07 02:49:01+00:00,217.8564,0.0,12.65,47.84626,-54.09684
2020-03-07 02:59:01+00:00,221.5948,0.0,12.65,47.84626,-54.09684
2020-03-07 03:09:01+00:00,219.2331,0.0,12.65,47.84626,-54.09684
2020-03-07 03:19:01+00:00,216.8764,0.0,12.57,47.84626,-54.09684
2020-03-07 03:29:01+00:00,218.2264,-0.1,12.57,47.84626,-54.09684
2020-03-07 03:39:01+00:00,221.093,-0.1,12.57,47.84626,-54.09684
2020-03-07 03:49:01+00:00,218.2165,-0.06,12.57,47.84626,-54.09684
2020-03-07 03:59:01+00:00,219.1114,0.0,12.57,47.84626,-54.09684
2020-03-07 04:09:01+00:00,225.3881,0.07,12.57,47.84626,-54.09684
2020-03-07 04:19:01+00:00,229.9564,0.09,12.57,47.84626,-54.09684
2020-03-07 04:29:01+00:00,229.9948,0.1,12.57,47.84626,-54.09684
2020-03-07 04:39:01+00:00,232.9114,0.1,12.57,47.84626,-54.09684
2020-03-07 04:49:01+00:00,239.5264,0.1,12.57,47.84626,-54.09684
2020-03-07 04:59:01+00:00,239.8614,0.1,12.57,47.84626,-54.09684
2020-03-07 05:09:01+00:00,235.1714,0.1,12.57,47.84626,-54.09684
2020-03-07 05:19:01+00:00,236.4031,0.1,12.57,47.84626,-54.09684
2020-03-07 05:29:01+00:00,243.3464,0.1,12.57,47.84626,-54.09684
2020-03-07 05:39:01+00:00,246.7947,0.1,12.57,47.84626,-54.09684
2020-03-07 05:49:01+00:00,251.7081,0.1,12.57,47.84626,-54.09684
2020-03-07 05:59:01+00:00,261.7448,0.1,12.57,47.84626,-54.09684
2020-03-07 06:09:01+00:00,269.7264,0.12,12.57,47.84626,-54.09684
2020-03-07 06:19:01+00:00,272.9847,0.15,12.57,47.84626,-54.09684
2020-03-07 06:29:01+00:00,279.4914,0.14,12.57,47.84626,-54.09684
2020-03-07 06:39:01+00:00,287.8381,0.14,12.57,47.84626,-54.09684
2020-03-07 06:49:01+00:00,291.233,0.1,12.57,47.84626,-54.09684
2020-03-07 06:59:01+00:00,295.20799999999997,0.1,12.57,47.84626,-54.09684
2020-03-07 07:09:01+00:00,301.7531,0.1,12.57,47.84626,-54.09684
2020-03-07 07:19:01+00:00,310.748,0.1,12.57,47.84626,-54.09684
2020-03-07 07:29:01+00:00,318.4597,0.1,12.57,47.84626,-54.09684
2020-03-07 07:39:01+00:00,322.7313,0.1,12.57,47.84626,-54.09684
2020-03-07 07:49:01+00:00,328.5780000000001,0.1,12.57,47.84626,-54.09684
2020-03-07 07:59:01+00:00,334.2296,0.1,12.57,47.84626,-54.09684
2020-03-07 08:09:01+00:00,339.7029,0.1,12.57,47.84626,-54.09684
2020-03-07 08:19:01+00:00,342.7896,0.1,12.57,47.84626,-54.09684
2020-03-07 08:29:01+00:00,347.358,0.1,12.57,47.84626,-54.09684
2020-03-07 08:39:01+00:00,357.1912,0.11,12.57,47.84626,-54.09684
2020-03-07 08:49:01+00:00,359.5929,0.14,12.57,47.84626,-54.09684
2020-03-07 08:59:01+00:00,362.0363,0.12,12.57,47.84626,-54.09684
2020-03-07 09:09:01+00:00,364.4479,0.11,12.57,47.84626,-54.09684
2020-03-07 09:19:01+00:00,371.0046,0.1,12.49,47.84626,-54.09684
2020-03-07 09:29:01+00:00,376.6779,0.14,12.49,47.84626,-54.09684
2020-03-07 09:39:01+00:00,373.2629,0.18,12.49,47.84626,-54.09684
2020-03-07 09:49:01+00:00,373.2163,0.19,12.49,47.84626,-54.09684
2020-03-07 09:59:01+00:00,371.06800000000004,0.18,12.49,47.84626,-54.09684
2020-03-07 10:09:01+00:00,362.5679,0.1,12.49,47.84626,-54.09684
2020-03-07 10:19:01+00:00,356.4696,0.1,12.49,47.84626,-54.09684
2020-03-07 10:29:01+00:00,354.173,0.1,12.49,47.84626,-54.09684
2020-03-07 10:39:01+00:00,349.6996,0.15,12.49,47.84626,-54.09684
2020-03-07 10:49:01+00:00,348.5597,0.17,12.49,47.84626,-54.09684
2020-03-07 10:59:01+00:00,348.3945,0.19,12.49,47.84626,-54.09684
2020-03-07 11:09:01+00:00,345.3463,0.2,12.49,47.84626,-54.09684
2020-03-07 11:19:01+00:00,339.1863,0.2,14.08,47.84626,-54.09684
2020-03-07 11:29:01+00:00,336.1447,0.2,14.08,47.84626,-54.09684
2020-03-07 11:39:01+00:00,331.4263,0.2,14.08,47.84626,-54.09684
2020-03-07 11:49:01+00:00,323.6797,0.2,14.08,47.84626,-54.09684
2020-03-07 11:59:01+00:00,321.4246,0.2,14.08,47.84626,-54.09684
2020-03-07 12:09:01+00:00,314.14799999999997,0.2,14.08,47.84626,-54.09684
2020-03-07 12:19:01+00:00,314.3063,0.19,14.8,47.84626,-54.09684
2020-03-07 12:29:01+00:00,316.9046,0.19,14.8,47.84626,-54.09684
2020-03-07 12:39:01+00:00,312.5696,0.18,14.8,47.84626,-54.09684
2020-03-07 12:49:01+00:00,297.8413,0.13,14.8,47.84626,-54.09684
2020-03-07 12:59:01+00:00,293.9247,0.15,14.8,47.84626,-54.09684
2020-03-07 13:09:01+00:00,292.253,0.1,14.8,47.84626,-54.09684
2020-03-07 13:19:01+00:00,277.0397,0.09,14.64,47.84626,-54.09684
2020-03-07 13:29:01+00:00,268.9214,0.02,14.64,47.84626,-54.09684
2020-03-07 13:39:01+00:00,269.1064,0.0,14.64,47.84626,-54.09684
2020-03-07 13:49:01+00:00,262.0081,-0.1,14.64,47.84626,-54.09684
2020-03-07 13:59:01+00:00,243.9347,-0.1,14.64,47.84626,-54.09684
2020-03-07 14:09:01+00:00,238.7897,-0.1,14.64,47.84626,-54.09684
2020-03-07 14:19:01+00:00,245.6081,-0.07,14.32,47.84626,-54.09684
2020-03-07 14:29:01+00:00,235.0647,-0.01,14.32,47.84626,-54.09684
2020-03-07 14:39:01+00:00,215.8198,0.0,14.32,47.84626,-54.09684
2020-03-07 14:49:01+00:00,219.0731,0.09,14.32,47.84626,-54.09684
2020-03-07 14:59:01+00:00,224.2364,0.1,14.32,47.84626,-54.09684
2020-03-07 15:09:01+00:00,217.1681,0.14,14.32,47.84626,-54.09684
2020-03-07 15:19:01+00:00,204.1748,0.2,14.4,47.84626,-54.09684
2020-03-07 15:29:01+00:00,202.3298,0.2,14.4,47.84626,-54.09684
2020-03-07 15:39:01+00:00,199.5815,0.2,14.4,47.84626,-54.09684
2020-03-07 15:49:01+00:00,194.2781,0.15,14.4,47.84626,-54.09684
2020-03-07 15:59:01+00:00,193.0898,0.1,14.4,47.84626,-54.09684
2020-03-07 16:09:01+00:00,189.1431,0.08,14.4,47.84626,-54.09684
2020-03-07 16:19:01+00:00,187.9431,0.05,14.48,47.84626,-54.09684
2020-03-07 16:29:01+00:00,195.4531,0.05,14.48,47.84626,-54.09684
2020-03-07 16:39:01+00:00,196.7448,0.0,14.48,47.84626,-54.09684
2020-03-07 16:49:01+00:00,196.0215,0.01,14.48,47.84626,-54.09684
2020-03-07 16:59:01+00:00,203.9165,0.1,14.48,47.84626,-54.09684
2020-03-07 17:09:01+00:00,205.0247,0.1,14.48,47.84626,-54.09684
2020-03-07 17:19:01+00:00,202.5498,0.18,14.24,47.84626,-54.09684
2020-03-07 17:29:01+00:00,204.2431,0.25,14.24,47.84626,-54.09684
2020-03-07 17:39:01+00:00,211.3247,0.22,14.24,47.84626,-54.09684
2020-03-07 17:49:01+00:00,212.7414,0.27,14.24,47.84626,-54.09684
2020-03-07 17:59:01+00:00,208.0664,0.3,14.24,47.84626,-54.09684
2020-03-07 18:09:01+00:00,213.6964,0.3,14.24,47.84626,-54.09684
2020-03-07 18:19:01+00:00,224.7781,0.3,14.08,47.84626,-54.09684
2020-03-07 18:29:01+00:00,230.7564,0.3,14.08,47.84626,-54.09684
2020-03-07 18:39:01+00:00,243.2498,0.31,14.08,47.84626,-54.09684
2020-03-07 18:49:01+00:00,254.6114,0.3,14.08,47.84626,-54.09684
2020-03-07 18:59:01+00:00,261.0297,0.3,14.08,47.84626,-54.09684
2020-03-07 19:09:01+00:00,270.6231,0.3,14.08,47.84626,-54.09684
2020-03-07 19:19:01+00:00,286.7731,0.3,13.84,47.84626,-54.09684
2020-03-07 19:29:01+00:00,278.5264,0.3,13.84,47.84626,-54.09684
2020-03-07 19:39:01+00:00,267.9497,0.3,13.84,47.84626,-54.09684
2020-03-07 19:49:01+00:00,278.6514,0.31,13.84,47.84626,-54.09684
2020-03-07 19:59:01+00:00,290.8864,0.34,13.84,47.84626,-54.09684
2020-03-07 20:09:01+00:00,292.993,0.3,13.84,47.84626,-54.09684
2020-03-07 20:19:01+00:00,305.6513,0.3,13.53,47.84626,-54.09684
2020-03-07 20:29:01+00:00,309.6213,0.3,13.53,47.84626,-54.09684
2020-03-07 20:39:01+00:00,315.7946,0.3,13.53,47.84626,-54.09684
2020-03-07 20:49:01+00:00,324.353,0.3,13.53,47.84626,-54.09684
2020-03-07 20:59:01+00:00,316.4464,0.3,13.53,47.84626,-54.09684
2020-03-07 21:09:01+00:00,318.068,0.3,13.53,47.84626,-54.09684
2020-03-07 21:19:01+00:00,333.6663,0.3,13.13,47.84626,-54.09684
2020-03-07 21:29:01+00:00,334.2563,0.3,13.13,47.84626,-54.09684
2020-03-07 21:39:01+00:00,318.5663,0.26,13.13,47.84626,-54.09684
2020-03-07 21:49:01+00:00,334.083,0.29,13.13,47.84626,-54.09684
2020-03-07 21:59:01+00:00,351.2329,0.3,13.13,47.84626,-54.09684
2020-03-07 22:09:01+00:00,333.6329,0.26,13.13,47.84626,-54.09684
2020-03-07 22:19:01+00:00,329.0080000000001,0.27,12.81,47.84626,-54.09684
2020-03-07 22:29:01+00:00,346.01300000000015,0.29,12.81,47.84626,-54.09684
2020-03-07 22:39:01+00:00,358.5213,0.29,12.81,47.84626,-54.09684
2020-03-07 22:49:01+00:00,343.3763,0.28,12.81,47.84626,-54.09684
2020-03-07 22:59:01+00:00,336.0696,0.23,12.81,47.84626,-54.09684
2020-03-07 23:09:01+00:00,356.1096,0.26,12.81,47.84626,-54.09684
2020-03-07 23:19:01+00:00,353.8879,0.17,12.65,47.84626,-54.09684
2020-03-07 23:29:01+00:00,331.24300000000005,0.2,12.65,47.84626,-54.09684
2020-03-07 23:39:01+00:00,338.6113,0.2,12.65,47.84626,-54.09684
2020-03-07 23:49:01+00:00,351.7247,0.0,12.65,47.84626,-54.09684
2020-03-07 23:59:01+00:00,337.6197,-0.06,12.65,47.84626,-54.09684
